STARLINK-11634, 63673

Orbit data source: Space-Track

STARLINK-11634, 63673 is a payload satellite owned by SpaceX/Seattle (US) in LEO that was launched on Mon, 28 Apr 2025 UTC via an FALCON 9 launch vehicle from the Air Force Eastern Test Range (AFETR). Payload-class satellites include a variety of spacecraft equipped with specific instruments for various scientific and technological missions. These include communications satellites like Starlink; space stations such as the ISS; scientific satellites like the Hubble; Earth observation satellites from companies like Planet Labs, Umbra, and HawkEye 360; GPS; miniature CubeSats for education and research; and military/defense satellites.

Loading next visibility...
Identifier
63673, 2025-085K
Orbit
LEO
Country
Flag of USUS
Related business
Manufacturer
SpaceX/Seattle
Mission
Operational Commercial Communications
Bus & Motor
STARLINK V2MD, Unknown motor
Mass
960 kg wet, ~910 kg dry
Launch date (UTC)
2025-04-28 (1 year ago)
Launch vehicle
FALCON 9
Launch site
Air Force Eastern Test Range (AFETR)
Object type
Payload
Rocket body
Debris
Shape & HBR
Box + 2 Pan, 18.1 m
Radar Cross Section
36.964 m², Large (>1 m²)

Expand to show TLE details & history
Last TLE update: 20 hours ago

TLE from 20 hours ago
0 STARLINK-11634
1 63673U 25085K   26171.00257800  .00165138  00000-0  12646-2 0  9999
2 63673  42.9987  21.6516 0001457 301.6187  58.4539 15.70848688 66337
Epoch: 2026-06-20T00:03Z
TLE epoch observation values (Epoch: 2026-06-20T00:03:42.739Z)
Latitude
0.00004°
Longitude
112.50011°
Altitude
355.728 km
Speed
7.698 km/s
True Right ascension
01h 26m 36s
True Declination
0° 00' 00"
Sunlit
Object was in daylight at epoch
Visualization orbit readout
Latitude
Unknown
Longitude
Unknown
Altitude
Unknown
Speed
Unknown
Apparent Right ascension
Unknown
Apparent Declination
Unknown
Sunlit
N/A
Visualization observer readout
Local Sidereal Time
07:24:04
Azimuth
Unknown
Elevation
Unknown
Doppler factor
Unknown
Orbital elements
Apogee altitude
359.434 km
Perigee altitude
357.471 km
Semi-major axis
6,736.589 km
Eccentricity
0.00015
Inclination
42.9987°
RAAN
21.6516°
Arg. of periapsis
301.6187°
True anomaly
58.46813°
Mean anomaly
58.4539°
Eccentric anomaly
58.46101°
Mean motion
3.92539 °/min
Orbital period
91.71 mins
BSTAR
0.0012646
Loading maneuver chart data...
Computing Atmospheric mass density...
Loading historical data...
Loading historical data...
Loading historical data...
Loading historical data...
Loading historical data...
Loading historical data...
Loading historical data...

Documentation

Showing up to 5 results
|